Theta_e
320 320 319 318 317 317 317 317 318 319 319 319 320 320 321 321 321 321 322 322 322 323 323 324 325 325 325 326 327 327 323 318 316 313 310 311 323 335 336 338 338 338 327 310 307 308 307 308 309 308 310 310 307 308 305 308 304 310 304 302 299 301 299 302 301 301 302 302 301 299 301 302 300 301 303 303 303 303 303 303 305 304 306 307 308 309 311 318
320 320 319 318 317 317 317 317 317 317 318 318 319 320 320 320 321 321 321 321 322 323 323 324 325 325 326 326 326 324 319 319 314 315 314 324 330 333 337 338 338 336 328 312 309 308 307 306 306 308 309 306 308 306 306 306 306 306 302 302 299 301 302 303 303 302 301 303 303 301 299 301 302 303 303 302 302 302 302 303 304 304 307 308 308 311 313 318
320 320 319 318 317 316 316 316 317 317 317 318 318 319 319 319 320 320 321 321 322 323 323 324 325 325 326 326 325 321 317 314 312 309 310 323 329 333 335 336 335 329 311 312 309 309 308 308 307 307 306 305 305 304 308 303 306 300 304 299 300 305 300 300 301 301 300 300 301 300 299 300 301 302 303 301 302 301 301 303 303 303 305 307 310 313 316 316
319 318 318 317 316 316 316 316 316 317 317 318 318 318 318 319 319 320 320 321 321 322 323 324 324 325 325 325 325 323 317 312 305 307 313 324 331 334 334 332 331 323 310 309 308 307 306 307 307 308 306 305 303 304 304 302 305 300 301 300 300 298 301 299 299 300 299 299 302 301 298 300 300 301 302 302 300 301 303 305 305 305 306 308 310 313 316 315
318 317 317 316 315 315 316 315 315 316 317 317 317 317 317 318 319 320 320 320 321 322 323 323 324 325 325 325 323 318 315 301 302 307 316 327 330 332 333 326 322 311 310 306 308 306 308 308 307 307 306 302 304 303 301 302 301 303 299 297 298 298 301 298 298 297 298 296 301 300 300 301 300 300 301 302 300 301 304 305 306 306 306 308 309 314 315 315
317 317 316 315 315 315 315 315 315 315 316 316 317 317 317 318 319 319 320 320 321 322 323 323 324 324 324 323 320 311 306 293 304 312 324 326 328 328 328 323 315 307 309 309 308 307 308 307 307 305 303 302 300 301 301 301 300 300 298 298 298 298 300 298 298 296 297 300 300 300 302 301 301 302 300 301 302 304 303 304 304 303 304 307 311 315 314 315
318 317 316 315 314 315 315 314 315 315 315 315 316 317 317 318 318 319 320 320 321 322 323 323 324 324 323 320 310 310 304 302 307 316 322 326 325 320 324 316 313 308 309 309 307 308 306 306 306 303 302 301 299 301 299 300 299 303 299 298 298 297 299 297 298 294 296 299 300 301 300 301 299 300 299 298 303 305 301 302 303 304 302 306 311 314 314 315
317 316 316 314 314 314 314 314 314 314 314 315 315 316 317 317 318 319 319 320 321 322 323 323 323 323 320 319 311 305 305 302 311 315 320 322 314 309 321 311 309 313 309 306 307 307 307 305 304 302 302 300 300 301 299 301 302 301 299 298 298 298 298 297 296 297 297 298 298 299 300 300 300 300 298 301 304 305 304 304 304 303 303 305 309 313 314 315
316 315 314 313 313 314 314 314 313 313 313 314 315 316 317 317 317 318 318 319 320 321 322 323 323 322 316 312 309 302 302 309 311 315 317 313 309 308 318 314 310 311 307 307 304 307 308 302 303 304 300 300 300 300 299 300 298 301 299 299 299 299 298 297 297 297 298 299 299 300 300 299 299 298 298 304 305 302 303 304 305 305 305 305 307 311 313 314
315 314 314 313 313 313 313 312 312 312 313 314 314 315 316 317 317 318 318 319 320 321 322 323 322 319 308 313 306 299 305 313 318 316 310 307 306 310 312 310 309 309 310 306 308 308 308 305 305 305 306 301 301 300 298 301 299 300 299 301 301 298 299 298 300 299 298 301 298 300 301 299 298 298 301 302 302 301 303 304 304 305 305 306 307 309 312 313
315 314 314 313 313 312 312 311 311 312 313 314 315 315 316 316 317 317 318 319 320 321 322 322 321 315 313 308 303 299 309 318 316 312 307 307 310 311 309 310 308 310 309 308 308 306 306 306 306 305 306 302 302 299 300 299 299 300 300 300 301 299 300 299 300 299 300 300 298 301 300 299 299 299 301 304 301 302 303 304 304 304 306 306 306 307 309 311
316 315 313 313 313 312 312 312 312 313 313 314 314 315 316 316 317 317 318 319 320 321 322 321 319 307 305 306 303 304 303 315 313 310 310 311 309 307 308 306 308 313 312 308 308 308 307 306 307 304 301 303 300 300 299 299 300 299 299 300 300 301 301 300 300 299 298 300 298 300 300 299 298 299 303 299 301 301 302 304 304 305 305 306 306 306 307 309
316 315 314 313 312 312 311 312 313 313 313 314 315 316 316 317 317 318 318 319 320 321 322 321 317 308 307 301 302 307 308 311 313 309 310 310 308 307 307 307 308 308 312 310 307 308 305 307 308 304 303 303 300 299 300 302 298 299 301 300 299 300 300 299 298 298 298 299 297 299 295 300 302 303 301 301 301 301 301 303 304 304 304 305 305 306 307 308
315 314 314 313 313 312 312 312 313 313 313 315 315 316 316 316 317 317 319 319 321 322 322 319 314 307 304 301 309 308 311 315 312 311 311 310 311 311 309 310 310 310 311 308 306 306 307 306 308 303 305 302 300 302 302 301 301 300 298 300 299 297 297 298 299 298 299 298 298 300 295 299 302 302 300 298 299 301 302 304 305 304 304 304 305 305 306 307
314 315 314 314 313 313 312 313 313 313 314 314 315 315 316 316 317 318 319 320 321 321 320 319 311 306 301 300 303 312 317 314 311 311 310 309 310 308 308 310 307 306 306 308 307 304 305 309 309 304 301 299 302 301 300 300 298 297 296 296 297 296 298 298 297 297 299 298 298 300 296 298 302 304 299 298 299 300 301 303 304 304 304 304 304 304 305 306
316 316 316 315 313 313 313 312 313 314 314 315 315 315 316 317 318 319 320 321 321 316 318 319 309 306 300 298 307 320 312 310 309 311 309 308 311 309 309 307 308 307 308 305 305 306 308 308 302 300 301 301 301 301 299 299 299 298 297 296 295 295 297 297 296 296 296 297 298 299 297 299 300 302 299 298 299 299 300 302 303 303 303 303 304 304 305 305
315 315 315 314 313 313 313 313 313 313 313 314 315 315 317 318 319 319 320 319 314 312 318 306 304 303 298 301 309 306 308 310 308 311 308 306 308 308 308 309 306 306 307 307 309 309 307 306 299 301 302 301 299 302 295 294 294 296 296 295 296 294 296 294 296 296 298 297 297 298 295 298 301 301 300 297 300 300 300 302 303 304 303 303 304 304 304 304
316 315 315 313 313 313 313 313 314 314 314 314 314 315 317 319 319 317 318 316 312 310 307 308 310 305 298 300 300 302 305 309 308 305 306 305 306 307 308 306 302 306 307 306 307 305 305 302 302 300 301 300 300 299 293 291 294 294 294 294 294 292 294 295 295 296 296 295 296 298 296 298 300 303 304 303 300 300 301 302 304 304 303 303 303 303 304 304
315 315 314 313 313 314 314 314 314 314 314 315 316 317 317 318 317 315 309 307 301 300 298 300 299 294 294 299 303 305 308 308 307 307 307 309 306 306 306 306 307 304 302 301 300 303 304 303 304 300 296 297 297 298 295 295 295 295 297 295 296 293 295 294 297 296 295 297 296 297 296 298 301 302 303 304 302 300 301 302 302 302 303 303 303 304 303 304
316 316 315 314 314 315 315 315 314 314 316 313 314 314 310 305 305 302 307 304 301 299 300 302 301 298 298 301 306 308 308 308 307 306 308 306 308 307 304 305 307 303 299 299 301 300 300 299 297 296 298 299 300 299 296 295 297 297 297 297 294 295 296 296 295 295 294 295 297 298 299 298 299 301 303 304 303 300 300 300 301 302 303 303 303 303 304 304
317 317 316 315 315 316 316 315 315 314 314 313 313 306 299 300 296 294 300 302 301 298 302 301 301 300 301 305 306 306 305 304 307 307 307 307 305 305 301 302 301 298 299 295 301 299 300 297 297 300 297 298 297 295 296 295 297 296 296 295 295 295 294 296 296 295 296 295 297 298 296 297 299 301 302 303 302 301 301 301 302 302 303 304 304 305 305 304
318 318 317 316 317 316 316 315 315 316 314 314 310 300 305 303 303 303 303 295 297 302 302 303 300 304 303 306 307 305 307 303 304 306 309 306 304 301 299 300 297 297 298 298 299 298 297 294 297 296 294 295 295 295 297 297 296 296 296 296 294 296 297 295 293 295 296 295 295 297 295 297 299 300 302 302 302 303 303 303 304 304 305 304 304 305 305 304
318 318 317 317 317 317 316 315 315 315 313 310 308 303 307 312 308 307 306 303 299 298 301 301 301 301 303 305 305 304 303 300 300 304 306 307 301 301 300 298 297 297 296 298 295 296 292 296 297 295 296 296 293 294 296 296 297 296 295 293 293 296 292 292 295 294 294 294 296 296 294 296 299 301 301 303 303 303 305 304 304 304 303 304 305 306 305 304
318 318 318 317 317 317 316 315 315 313 309 309 306 307 312 309 307 307 307 297 296 296 301 302 300 302 303 302 307 305 302 299 302 302 307 303 301 300 300 298 295 296 296 296 296 295 294 296 292 294 295 297 294 293 295 295 294 296 297 296 295 293 295 293 293 295 294 293 293 295 295 297 300 299 301 302 302 301 302 303 303 304 305 305 306 305 305 303
318 318 318 317 317 318 316 315 311 308 309 308 309 313 309 310 309 307 304 294 294 296 299 299 303 303 303 309 307 304 301 299 301 304 307 304 298 299 298 297 298 295 297 296 294 294 294 294 294 294 294 294 295 293 295 297 293 295 296 297 296 297 294 293 294 295 295 295 295 293 290 293 296 297 298 302 300 301 302 301 303 304 305 304 302 303 304 305
317 318 318 317 318 316 316 309 308 309 306 307 312 311 309 308 308 305 301 290 290 295 297 294 305 299 311 303 307 304 301 298 300 302 303 305 306 301 296 297 296 295 294 294 295 297 294 291 295 295 294 295 295 295 297 298 294 293 293 296 297 295 295 295 293 294 290 289 294 294 289 287 296 296 298 300 300 301 304 304 304 305 304 303 303 304 303 303
318 317 318 318 318 317 308 305 311 308 301 305 310 309 307 308 309 306 297 289 285 297 294 299 297 300 308 303 304 300 291 295 303 304 304 304 302 303 298 296 295 295 296 297 292 292 293 292 293 296 295 296 294 292 295 296 295 292 293 293 295 295 295 295 295 295 293 294 296 293 295 289 289 296 299 300 297 299 300 303 305 306 305 303 303 304 304 303
318 318 318 318 317 315 310 309 307 303 303 306 307 308 310 310 305 304 295 281 281 301 295 294 300 307 305 301 302 297 295 299 297 300 301 303 302 301 299 296 296 296 294 295 288 296 294 292 293 293 295 294 294 296 297 298 295 294 291 295 295 296 296 295 295 294 293 290 289 291 295 289 290 295 294 296 297 297 299 302 304 305 304 303 305 303 302 302
318 318 317 317 317 314 312 310 307 304 308 308 309 310 311 307 304 299 290 280 295 294 308 295 307 303 299 301 298 295 297 298 296 298 303 302 303 301 296 297 296 296 294 295 294 293 292 295 296 297 295 293 295 291 293 298 295 292 293 295 294 295 295 296 294 295 292 290 287 290 293 287 288 295 293 296 297 297 300 302 304 304 303 304 304 302 299 298
318 318 318 318 315 312 311 312 308 309 308 308 311 309 308 305 298 290 282 278 300 289 297 298 298 295 299 295 294 295 295 296 297 299 301 299 302 301 295 299 297 296 296 296 296 293 293 295 295 295 295 296 292 292 291 294 294 295 297 298 296 296 295 294 294 293 291 285 288 292 293 291 286 296 295 294 297 299 301 303 303 303 305 304 301 300 301 298
318 318 318 317 310 311 311 306 310 313 311 310 311 310 306 303 292 285 278 288 297 295 295 295 293 298 295 293 291 292 295 294 297 299 297 300 298 298 298 296 300 297 294 295 294 295 295 294 296 295 293 294 297 295 294 293 295 298 297 296 295 293 293 293 291 292 286 285 288 288 291 293 284 291 295 300 298 296 299 300 302 303 304 303 302 299 298 297
318 318 318 315 314 314 306 305 311 313 312 311 310 305 297 287 290 282 282 294 288 293 294 291 293 295 295 297 296 293 294 295 297 297 296 296 296 294 294 293 294 288 288 290 290 293 292 295 296 295 295 296 298 296 294 295 295 297 297 295 288 286 286 284 287 283 285 284 287 287 288 288 287 292 297 298 299 300 300 301 302 304 303 305 302 300 298 298
317 317 317 316 313 311 312 315 313 312 312 310 308 301 292 287 278 287 288 290 287 296 291 297 293 294 295 294 292 293 295 293 296 295 296 296 296 296 298 296 298 295 288 292 291 289 292 295 293 296 295 296 300 293 292 290 294 295 293 291 287 282 282 280 283 280 281 285 285 288 291 286 292 295 299 299 301 303 303 302 303 303 303 304 303 301 298 298
317 317 315 314 313 313 313 315 313 313 310 308 302 295 292 283 282 294 291 291 292 291 295 293 292 293 294 292 293 294 291 293 294 294 296 294 294 293 294 295 294 293 294 290 289 289 285 285 291 293 292 299 297 297 297 295 294 294 301 294 290 288 284 280 282 281 283 285 284 287 284 286 287 293 297 300 301 299 300 302 303 302 302 302 301 299 298 298
317 317 316 314 312 313 314 315 313 314 310 305 296 290 283 282 289 288 290 291 291 293 291 294 292 291 290 291 291 294 295 290 294 293 293 293 291 293 293 293 295 295 296 289 291 289 289 290 292 296 292 296 296 296 299 298 296 296 296 296 290 288 291 285 285 284 283 285 284 282 285 292 293 299 298 299 298 299 299 299 298 299 300 300 299 299 299 298
315 314 315 310 310 312 314 314 314 313 308 301 291 286 284 288 286 293 291 297 294 292 291 293 293 290 289 290 291 292 296 293 292 293 291 293 295 292 296 296 295 295 292 289 293 286 286 287 291 294 294 295 296 295 297 297 287 293 293 289 292 293 293 284 280 280 280 283 282 289 287 291 296 297 299 300 299 299 298 297 298 299 301 302 301 301 301 299
312 313 308 310 310 313 314 314 314 311 307 298 289 285 291 294 298 296 297 295 295 295 292 288 288 289 287 287 290 290 292 295 292 293 289 294 291 294 293 295 299 296 296 296 291 297 288 289 289 291 291 292 292 292 296 295 296 293 288 292 292 296 296 289 284 284 284 281 284 285 285 288 288 286 295 296 296 298 299 300 300 301 301 299 301 303 303 300
310 310 310 310 312 313 314 315 313 310 302 295 287 290 295 292 298 295 297 296 295 296 293 292 291 295 289 289 288 289 292 291 290 291 291 292 290 300 294 294 297 297 297 297 293 294 295 287 289 286 289 294 293 295 296 295 295 295 293 301 292 287 285 290 286 280 280 279 282 286 287 287 290 290 295 295 295 297 299 300 300 300 301 301 302 303 301 299
309 307 302 311 313 313 313 314 310 304 297 289 287 287 295 295 302 297 297 298 298 295 292 293 291 292 294 289 291 290 291 287 291 289 289 291 288 297 295 296 295 297 298 297 293 293 295 287 287 288 291 293 295 295 288 291 295 295 295 293 295 292 289 286 287 287 286 281 279 283 285 285 295 294 295 296 298 299 300 301 300 301 302 303 304 304 302 299
305 301 299 312 313 314 313 311 304 300 294 286 288 289 300 295 297 298 297 298 296 295 293 293 294 290 291 292 292 289 292 291 290 291 292 294 291 298 294 298 296 295 297 297 295 299 291 291 285 289 291 292 288 292 290 293 289 290 292 291 291 289 291 291 290 286 286 283 282 282 282 288 296 299 297 298 299 300 301 302 304 304 304 304 305 305 303 300
307 301 301 311 312 313 312 306 297 292 290 292 294 294 297 295 298 297 299 299 301 299 294 296 294 292 293 290 289 293 290 290 291 290 291 292 292 290 297 297 299 294 298 296 296 296 290 288 286 287 288 287 292 294 292 296 296 294 292 290 292 288 286 284 283 287 285 286 282 281 281 289 297 295 300 300 301 302 303 304 304 305 305 305 304 303 302 301
302 293 299 311 312 311 304 294 292 294 290 289 289 295 294 298 296 297 298 298 301 299 299 298 297 296 294 293 295 292 292 290 290 291 292 291 295 295 297 299 299 298 294 291 293 297 296 293 289 285 289 290 292 290 288 289 292 293 294 293 295 293 292 288 282 285 284 286 285 286 282 286 298 297 300 300 300 299 299 301 302 302 303 301 300 299 300 300
299 296 307 311 312 309 301 293 292 287 286 291 296 295 297 295 296 297 297 298 297 299 300 297 296 294 294 295 294 293 294 291 292 290 294 294 295 296 297 297 299 297 299 295 297 293 294 289 287 289 291 290 291 291 290 289 293 292 293 293 294 291 292 291 289 290 287 287 285 285 281 288 295 293 295 294 294 294 294 295 300 301 301 299 300 299 298 297
300 300 302 310 312 309 298 286 285 286 287 289 292 293 296 295 296 296 296 298 297 297 297 297 296 298 295 297 295 292 296 289 294 294 292 295 293 295 295 295 298 297 297 294 293 298 289 290 290 286 285 287 288 291 291 292 293 291 292 293 295 295 296 292 287 289 286 288 288 286 281 287 298 293 294 293 295 296 297 296 295 297 299 300 300 298 297 295
300 300 299 304 309 306 294 294 288 287 287 285 287 287 291 293 296 297 297 296 300 298 298 297 298 299 296 297 296 297 297 295 291 296 297 294 295 293 294 296 298 298 298 301 297 300 292 292 289 284 281 279 279 280 283 285 288 291 293 294 294 294 294 288 287 288 284 287 288 286 286 293 294 295 295 295 296 297 299 297 295 296 298 300 301 299 298 296
295 288 296 296 302 302 301 301 295 290 287 286 285 287 291 289 294 296 297 295 298 298 298 299 299 299 298 294 293 293 294 297 294 291 293 292 293 293 295 296 297 299 297 296 297 298 290 293 292 290 287 286 288 290 293 295 291 287 290 291 291 294 295 293 291 288 285 288 287 288 290 291 294 296 294 297 295 297 297 298 299 300 300 298 298 298 298 297
297 291 292 289 297 297 295 297 294 294 288 291 286 288 285 287 292 293 298 292 297 296 296 296 296 295 294 294 293 293 295 294 296 293 292 294 293 294 293 295 297 298 294 296 297 294 290 290 292 292 292 293 295 294 293 295 290 291 290 290 292 292 291 289 288 287 290 288 285 291 293 289 292 296 296 295 295 295 297 298 298 298 300 303 303 300 295 294
289 293 298 298 292 289 289 291 295 293 294 293 288 291 287 287 289 286 294 295 298 298 293 292 295 296 296 294 295 288 291 291 293 290 295 293 294 294 294 294 293 295 295 298 299 294 290 288 294 293 291 294 295 294 293 294 294 293 292 292 291 292 291 287 288 293 293 288 286 292 295 290 293 296 298 299 300 300 301 302 303 302 302 302 300 298 298 297
296 294 293 297 291 294 295 296 296 295 293 292 290 290 286 287 286 290 292 291 293 293 295 288 291 295 296 297 295 289 289 286 286 292 289 288 290 291 290 293 295 296 296 296 295 294 292 290 292 292 289 291 292 292 292 292 290 289 291 293 293 293 291 291 291 293 293 292 294 294 294 295 296 298 298 300 302 301 302 303 303 301 300 302 302 301 300 299
290 291 289 293 293 292 294 296 295 294 290 292 288 289 290 289 288 291 294 292 287 290 297 292 293 295 296 296 294 291 292 293 293 289 293 292 288 291 291 295 291 292 294 292 295 295 293 289 292 289 288 288 290 291 289 289 289 287 290 291 292 293 293 293 293 293 294 293 294 294 293 293 298 300 300 301 301 302 301 301 301 302 303 302 302 302 301 299
297 296 296 291 289 290 293 294 293 292 290 291 289 291 291 291 291 293 292 296 293 290 294 292 294 295 296 294 294 293 297 297 297 296 293 294 289 293 292 290 293 288 289 288 290 289 291 288 289 289 287 287 289 287 287 287 287 287 288 290 290 290 288 291 289 292 291 290 292 292 289 290 297 299 301 301 300 300 299 300 301 302 303 303 302 302 302 301
299 298 297 294 286 291 290 292 295 292 287 291 291 293 291 292 294 295 290 295 296 296 296 295 295 294 292 292 292 294 298 299 299 298 298 297 297 295 296 294 294 292 288 289 289 289 289 289 288 289 286 286 289 286 285 285 286 284 285 289 292 292 292 293 294 295 294 295 290 288 289 296 298 299 298 298 299 300 300 301 301 303 304 304 303 302 303 303
Wind_Speed
10 10 8 6 5 4 3 1 1 2 3 4 4 4 5 5 4 4 4 5 5 6 6 7 7 8 8 9 9 9 7 2 2 0 4 2 3 8 10 9 9 9 3 2 3 4 2 2 3 2 1 1 3 1 1 2 3 2 4 2 4 2 7 7 8 9 4 4 8 8 9 6 6 5 3 2 3 0 2 4 2 2 5 1 3 2 3 7
8 8 9 6 4 4 3 1 1 1 3 3 4 4 4 5 4 4 5 5 5 6 6 7 7 8 9 9 9 8 4 3 5 7 4 3 7 9 10 9 8 8 4 2 3 4 4 3 3 1 2 2 3 2 3 2 3 0 2 2 3 3 2 1 3 5 2 3 8 7 3 4 3 7 4 5 5 4 5 6 5 5 5 4 4 4 7 9
11 10 8 6 4 3 2 1 1 2 1 2 3 3 4 4 5 4 6 5 6 6 7 7 8 8 8 9 9 5 2 3 4 4 1 3 8 10 9 9 7 5 2 2 0 1 1 3 4 2 3 4 5 3 1 3 3 2 3 4 2 2 4 1 2 5 2 3 8 7 4 3 2 1 4 4 3 3 8 7 6 8 9 9 7 7 8 9
10 8 7 7 5 3 3 2 1 1 1 3 3 4 4 4 5 6 6 6 7 7 8 8 8 8 8 9 7 3 2 4 3 2 1 6 9 9 9 8 6 3 2 6 2 4 4 7 4 0 3 3 2 2 1 3 3 1 3 2 2 1 2 3 1 2 1 3 5 5 4 4 3 2 5 3 4 8 9 9 7 8 8 8 9 9 9 9
7 5 6 6 5 4 4 2 0 1 1 2 3 3 4 4 6 7 7 7 7 8 8 8 9 9 8 7 6 2 3 4 3 1 3 7 9 9 7 6 3 2 1 6 6 5 2 3 2 3 1 3 1 2 4 1 3 3 4 4 2 1 2 3 1 1 0 3 4 5 8 5 4 2 5 6 8 5 3 3 7 7 2 6 11 10 9 10
6 7 6 7 5 5 5 2 2 1 1 2 3 4 4 5 6 6 7 7 8 8 9 8 9 10 9 6 2 2 3 4 1 1 4 8 9 8 5 2 2 3 4 3 1 2 2 3 2 1 2 2 2 2 3 1 3 3 1 1 1 3 2 2 2 2 2 4 6 7 3 4 6 3 1 6 13 0 4 4 2 2 1 2 6 10 10 10
10 9 8 7 6 7 5 5 3 1 2 2 3 4 4 5 5 6 7 8 8 8 9 9 9 10 10 3 1 2 1 2 1 1 5 9 9 6 2 2 1 1 3 2 1 2 2 4 2 3 3 4 2 5 2 2 1 2 5 3 2 2 4 1 2 3 2 3 4 2 2 3 4 8 2 6 12 5 4 1 1 2 0 2 8 10 11 11
9 7 4 5 7 7 7 6 4 3 1 3 2 4 4 5 5 7 7 7 8 8 9 9 9 9 7 2 2 2 0 2 2 1 6 8 5 6 5 0 2 1 7 5 1 5 2 2 5 4 3 1 3 3 1 2 3 5 6 3 3 0 2 1 2 2 0 2 2 2 5 2 2 2 2 9 10 7 3 1 1 1 3 5 7 9 9 9
7 5 6 7 8 7 7 6 4 4 3 2 3 4 4 5 6 7 7 7 7 8 8 9 9 9 1 2 3 4 3 1 1 4 6 6 5 4 3 1 6 6 5 2 3 1 4 2 3 3 3 5 1 5 1 2 4 3 5 4 4 3 3 3 4 2 2 2 1 4 2 1 0 1 8 16 3 4 2 2 2 3 5 6 8 9 9 9
8 7 7 8 9 8 7 6 5 3 4 3 4 4 4 5 6 7 7 8 7 8 8 8 9 7 2 2 2 5 2 3 2 3 4 3 3 3 7 3 1 4 2 3 3 2 0 5 0 6 11 8 1 3 3 3 3 2 5 4 5 2 2 1 1 2 1 1 1 3 3 2 2 2 7 4 2 1 3 3 2 4 6 6 5 6 7 8
9 10 9 8 9 8 7 6 4 5 4 5 3 4 4 5 6 7 7 8 7 7 7 8 9 5 1 1 6 3 0 1 2 3 3 2 1 5 5 4 2 3 8 5 6 3 4 7 4 4 1 4 5 5 2 4 2 2 4 6 6 4 3 3 2 2 2 3 1 2 4 1 2 3 9 4 2 1 3 4 4 5 5 5 6 6 6 6
13 12 11 11 10 9 8 6 7 6 5 4 4 5 5 6 7 6 8 8 8 7 7 7 7 2 1 2 3 2 1 2 3 3 1 1 5 3 3 3 3 2 2 6 4 2 2 6 3 2 3 4 5 5 5 2 1 3 3 4 1 3 5 4 2 1 3 2 1 1 5 8 7 11 5 4 2 1 3 4 5 5 5 4 5 5 6 7
14 13 12 12 10 9 9 7 7 5 5 5 6 6 5 6 7 8 7 8 6 7 7 6 5 1 1 5 3 1 2 1 1 1 6 5 6 2 3 3 5 6 4 7 4 2 2 3 2 11 4 1 4 1 6 2 2 1 4 1 3 3 4 4 2 1 3 2 0 2 5 4 9 17 6 3 2 2 3 6 7 5 5 5 5 6 6 6
12 11 13 12 11 11 8 8 7 6 5 6 5 4 6 6 8 7 7 8 9 8 6 6 3 1 3 2 1 1 1 1 1 1 4 3 1 3 4 6 7 7 6 11 5 1 2 1 8 11 4 3 4 2 6 3 2 2 0 2 1 2 2 2 3 2 4 2 1 2 6 5 2 1 3 3 3 5 8 8 7 6 6 6 6 6 7 8
11 11 12 12 12 10 9 9 8 7 7 6 5 5 6 8 8 8 8 8 6 6 6 3 2 2 3 3 1 1 1 1 0 2 4 2 8 6 5 4 10 9 7 7 4 1 1 0 3 4 4 2 3 5 5 2 3 2 3 3 1 3 3 3 3 0 3 3 1 3 7 10 10 4 4 2 2 3 8 8 7 6 6 7 6 8 8 8
13 12 11 12 11 10 10 9 9 8 6 6 5 6 8 8 8 7 7 7 6 4 2 2 1 2 4 4 2 2 1 4 4 3 1 3 4 5 2 7 4 5 1 6 3 1 3 9 9 2 3 1 3 3 4 3 2 2 3 1 2 1 1 2 2 1 3 1 2 7 6 2 5 1 3 2 3 3 6 8 7 7 8 8 8 8 7 6
13 13 12 11 10 11 9 10 9 6 6 5 6 7 7 7 6 7 7 3 2 1 1 0 2 2 4 2 0 3 3 1 2 0 1 3 2 7 6 5 5 5 5 5 3 1 7 4 1 1 3 2 1 2 3 2 2 3 2 2 1 3 2 2 4 2 2 3 5 6 6 12 6 2 4 4 4 4 6 9 9 8 7 9 8 8 8 9
13 12 12 10 12 11 11 9 8 6 6 5 5 5 5 6 6 4 3 1 1 2 2 1 2 2 1 2 4 4 2 1 1 1 2 2 2 3 2 4 1 4 3 5 5 3 4 2 3 2 2 2 3 4 4 4 5 4 4 2 3 2 5 4 2 2 2 2 6 5 11 16 15 13 11 7 7 6 10 10 10 8 7 8 9 9 10 10
14 13 12 13 13 12 10 7 6 6 5 3 4 6 5 5 2 2 2 0 3 4 3 5 6 9 3 8 4 2 1 2 1 2 4 1 3 3 6 5 4 6 3 2 2 1 2 3 1 4 5 5 7 7 4 2 2 3 5 2 1 3 3 3 1 2 2 5 6 9 10 13 13 12 12 10 6 8 11 11 10 10 10 11 10 9 9 10
14 15 13 14 13 10 8 7 7 5 1 1 1 2 2 4 3 4 1 1 3 1 3 3 2 5 5 2 6 2 2 3 3 4 1 1 2 7 7 2 4 4 3 4 3 3 3 4 4 5 6 7 5 1 4 3 4 6 4 2 1 3 5 2 1 3 1 3 11 12 12 16 18 15 15 14 4 6 10 12 12 11 10 11 11 11 11 11
14 15 14 12 13 10 8 8 6 5 4 1 2 3 6 11 9 5 5 2 3 2 3 2 3 2 2 5 5 8 9 3 4 2 2 1 4 5 1 1 4 5 3 3 2 1 2 4 6 4 4 1 5 7 8 7 2 4 4 2 3 3 4 3 2 2 1 3 4 3 6 14 16 15 15 13 11 15 14 13 14 15 14 12 13 13 11 10
15 15 14 12 10 10 9 7 6 5 3 1 2 3 2 3 2 2 4 5 2 2 0 2 3 4 2 1 1 2 2 5 3 3 1 1 2 5 3 3 5 7 3 3 3 3 4 6 2 5 5 8 7 4 2 4 6 3 2 2 2 4 5 1 2 1 1 2 10 8 9 14 16 16 17 17 16 15 14 14 16 14 14 13 11 12 10 7
15 14 14 12 11 11 9 7 5 4 2 3 5 0 3 0 2 1 1 3 3 1 1 1 3 4 2 2 1 1 3 4 7 7 5 3 4 2 8 6 5 5 3 3 7 4 4 6 3 6 6 9 5 2 5 5 2 4 3 3 4 2 1 2 3 2 3 3 5 7 13 15 16 17 21 19 15 15 12 12 15 14 17 18 15 8 8 11
15 13 13 12 12 11 9 7 7 3 1 2 1 6 1 2 1 1 1 2 2 2 1 1 1 3 4 5 5 5 1 2 4 12 2 5 8 2 5 3 8 5 7 9 9 8 3 3 1 6 2 5 7 5 7 6 5 2 5 4 2 2 3 4 2 2 4 1 1 10 12 12 8 8 6 5 6 9 14 10 15 16 16 16 7 7 8 11
15 13 13 12 12 11 9 8 3 2 3 1 5 4 3 3 1 2 2 2 0 1 2 2 3 3 4 2 1 5 1 2 2 4 2 4 7 6 3 0 2 6 6 5 3 2 4 4 7 6 3 3 7 5 7 6 5 4 6 8 5 2 3 1 3 7 5 2 3 5 8 3 1 4 6 4 2 4 5 7 13 15 13 8 12 15 11 9
15 14 14 13 13 12 11 3 3 4 4 5 4 2 5 4 0 1 1 3 5 3 3 6 4 4 4 3 4 2 5 4 2 1 2 3 3 2 4 3 2 7 8 8 5 1 1 2 4 7 7 4 4 4 4 5 5 3 3 6 5 2 2 1 0 1 3 3 2 3 4 11 4 8 7 6 3 8 6 8 14 11 5 5 8 8 8 9
16 15 14 15 15 16 7 4 5 7 4 5 1 3 4 4 1 1 3 2 5 6 7 2 0 2 1 3 5 4 6 5 1 4 2 4 1 3 5 5 3 5 3 4 2 6 5 3 4 4 7 6 5 5 7 11 4 4 2 2 5 5 5 3 3 4 5 3 3 2 3 7 15 4 3 1 2 8 11 15 14 9 3 4 6 7 7 7
18 17 16 16 17 15 1 6 9 7 3 2 1 2 5 4 2 2 2 2 4 5 4 3 1 2 0 2 3 3 3 4 7 4 3 2 2 3 3 8 10 10 6 6 7 3 5 7 8 8 4 4 7 2 3 10 5 1 1 1 5 3 2 4 1 1 1 5 5 3 2 3 9 1 3 2 3 7 14 15 14 7 2 3 6 3 3 4
17 18 18 16 17 10 4 4 5 7 1 1 1 3 3 3 2 3 3 4 1 3 3 6 2 1 3 1 5 3 2 5 1 4 3 1 6 2 6 5 1 7 4 2 5 3 2 1 6 4 7 7 3 3 2 5 6 1 4 7 6 6 5 1 2 0 1 2 7 7 7 4 15 7 7 2 4 9 10 12 11 3 4 6 4 1 1 2
19 18 18 18 14 5 3 1 7 1 1 1 3 4 3 1 4 5 5 7 3 4 3 3 4 7 7 13 3 3 4 2 2 3 3 3 3 2 5 1 4 6 3 3 3 3 1 1 3 2 5 2 6 6 2 4 4 12 7 8 5 5 3 3 3 0 0 6 5 10 11 5 8 4 8 8 7 7 6 6 4 2 3 2 1 1 1 3
20 21 19 19 10 5 5 5 8 4 2 1 4 4 3 3 4 6 7 3 4 3 2 4 3 4 14 15 9 1 4 1 3 7 6 1 3 5 4 4 3 3 2 0 2 2 2 2 3 0 2 4 4 8 7 3 5 5 3 4 4 2 2 1 1 0 2 6 4 5 2 3 8 5 4 2 2 3 4 6 6 4 2 1 1 0 1 2
20 22 22 15 9 8 11 5 2 7 4 3 4 5 6 5 2 10 6 6 5 8 8 6 2 7 14 2 4 9 8 3 2 6 9 9 9 10 10 10 8 4 5 9 5 4 4 5 2 2 3 3 5 8 5 3 2 2 5 5 5 2 0 2 2 4 6 6 2 3 1 4 18 14 6 8 10 9 8 9 7 6 4 2 3 2 1 2
21 20 23 11 9 7 8 3 3 7 7 3 4 3 6 5 9 8 7 9 4 4 4 4 7 8 11 7 5 4 5 7 4 3 3 2 4 8 1 2 3 1 6 6 5 3 3 4 3 4 3 6 7 9 5 3 7 5 10 9 5 4 4 7 2 2 4 2 1 3 3 9 11 12 15 21 22 16 10 10 9 8 7 4 3 2 2 2
22 21 15 10 11 9 5 6 4 8 8 4 6 4 2 6 8 13 12 3 2 3 5 4 7 4 11 8 7 11 6 2 9 5 4 6 6 7 9 7 5 4 4 2 9 9 6 5 8 12 5 9 10 7 6 4 12 11 1 9 5 5 3 4 3 5 3 1 2 3 1 6 1 3 3 5 8 6 4 5 4 7 7 6 4 3 4 4
19 19 13 9 6 3 5 5 8 8 6 6 7 10 11 11 10 11 11 5 1 3 5 2 11 10 5 3 3 4 3 4 2 6 5 8 8 7 9 12 11 7 3 6 3 1 9 4 3 2 2 4 12 0 2 7 4 1 1 4 1 8 3 6 1 1 2 1 2 4 7 3 7 5 6 4 6 7 3 5 4 9 9 7 7 9 8 6
10 6 10 7 8 6 6 5 6 8 6 7 9 10 12 13 11 10 6 8 4 8 8 8 5 5 1 2 4 7 2 1 6 3 2 6 2 6 5 2 10 17 9 10 5 6 4 6 3 1 2 5 3 2 1 2 8 7 6 6 3 5 3 5 1 4 2 0 10 3 8 9 8 17 16 18 14 10 4 4 5 10 10 5 9 10 9 7
4 6 5 7 9 8 8 7 6 7 2 7 12 10 11 9 4 7 5 11 10 17 10 10 6 6 8 6 5 8 6 5 5 6 7 4 5 9 5 9 4 11 15 6 3 3 3 1 2 2 7 1 2 2 2 4 1 8 6 6 3 0 4 3 6 1 2 7 6 3 8 13 1 12 6 4 6 12 9 10 9 9 5 6 10 10 5 6
5 4 3 7 9 9 8 8 9 6 4 5 13 15 6 9 2 4 6 9 7 7 8 8 4 6 7 9 8 9 6 6 9 4 5 9 6 9 9 4 9 13 16 1 4 2 2 4 2 3 3 1 1 2 2 3 4 2 1 3 6 4 4 4 1 6 4 4 5 5 5 11 11 15 3 2 3 5 11 14 11 12 11 11 11 9 4 5
2 3 3 8 10 12 10 9 10 8 6 6 8 15 6 6 4 4 5 9 10 11 8 8 6 7 5 7 4 4 11 10 10 8 6 6 6 7 14 10 7 12 13 7 4 2 1 7 2 1 2 2 1 6 10 7 1 2 1 2 4 3 2 7 5 1 1 5 1 5 2 12 9 6 5 10 9 10 10 6 10 14 13 11 10 5 4 5
5 4 5 4 14 14 11 9 9 8 6 14 13 10 2 4 1 2 1 5 6 9 6 10 3 6 5 3 10 8 9 3 10 8 6 5 10 2 8 11 6 7 12 15 4 2 4 1 6 4 4 2 6 9 11 12 10 5 6 7 3 1 3 2 1 2 2 2 3 4 9 12 4 9 8 9 11 10 9 9 8 9 10 11 11 5 5 6
1 1 1 6 11 12 12 9 9 13 13 9 11 7 3 2 2 1 2 3 3 6 1 7 9 9 8 6 4 1 7 7 6 6 7 5 10 4 9 10 7 8 6 5 7 3 2 3 7 5 3 9 4 3 3 3 7 9 14 13 15 10 7 6 6 2 1 3 5 3 12 14 2 2 8 6 8 8 9 11 8 8 10 5 2 2 2 5
6 6 3 9 13 16 11 8 2 5 3 12 11 6 5 3 2 1 1 1 1 3 2 3 2 5 8 10 9 9 7 7 7 7 7 9 12 9 1 8 8 16 15 12 15 8 5 2 2 5 7 5 2 2 2 2 3 2 2 4 8 6 6 6 7 5 0 4 4 2 4 18 0 3 3 3 3 4 4 3 7 8 6 3 3 1 5 6
6 4 4 10 14 17 11 7 7 5 5 5 8 4 1 2 1 0 4 3 4 0 3 3 6 7 5 4 4 7 13 6 13 11 7 10 8 13 2 9 8 13 6 4 8 0 5 3 4 5 3 1 2 1 1 1 1 1 2 0 7 12 14 12 5 3 6 5 4 5 4 14 3 2 1 1 1 2 2 5 7 5 3 4 5 4 4 3
7 4 2 5 13 11 12 8 7 8 7 3 6 7 4 0 1 2 3 2 4 4 4 4 1 4 3 4 5 11 12 6 10 11 7 4 5 3 9 9 18 10 11 11 9 11 6 3 7 4 3 2 3 2 3 2 2 5 4 7 12 11 10 3 3 1 4 12 13 8 10 16 2 1 1 1 2 4 4 4 4 7 5 4 5 3 3 3
4 2 1 5 9 10 12 7 7 7 8 5 4 12 7 4 4 5 2 2 1 2 3 3 2 4 3 3 7 4 12 15 4 13 8 4 5 4 2 9 13 12 3 1 2 14 6 7 10 9 11 10 8 10 11 7 10 8 6 9 9 12 13 5 6 7 7 14 10 8 13 17 6 2 3 1 2 4 4 4 3 6 8 5 4 2 2 4
2 5 4 1 7 8 7 5 9 7 8 5 4 5 8 9 3 4 4 5 1 1 0 2 1 3 3 5 6 8 11 10 14 3 10 7 3 3 3 8 14 13 7 8 8 11 2 3 10 12 13 14 13 3 3 12 7 8 10 14 15 16 16 15 7 8 15 3 5 16 21 22 14 6 3 5 1 5 4 2 4 5 6 6 5 4 3 3
1 3 4 6 0 5 1 7 10 9 8 11 8 7 10 14 6 1 8 5 5 5 1 1 3 6 4 6 8 9 7 10 6 2 8 9 2 1 3 4 5 6 6 6 9 5 1 3 10 15 18 17 13 9 8 15 14 16 11 15 16 15 18 15 15 21 8 4 16 20 16 14 24 16 7 3 5 4 7 7 9 9 7 6 5 3 4 5
3 1 2 1 4 6 9 6 11 14 10 13 5 6 11 12 10 4 3 9 1 4 5 2 4 5 7 13 10 5 8 9 9 9 5 1 5 1 3 1 5 3 4 4 9 8 5 8 12 14 17 19 20 8 12 9 10 9 16 15 17 19 18 20 23 21 13 13 19 23 9 15 21 21 7 8 5 8 8 7 8 7 5 5 5 7 7 8
2 2 2 2 3 3 12 10 15 13 12 14 6 9 7 11 14 12 7 6 5 2 9 7 11 15 12 3 4 6 7 5 7 7 4 3 5 4 3 2 6 2 5 4 6 1 4 7 10 13 15 18 20 10 8 12 6 3 9 13 16 19 23 24 22 20 19 17 16 18 14 15 19 12 5 6 7 11 10 8 7 7 10 12 10 10 10 11
4 3 3 2 1 2 1 6 9 12 11 16 9 12 11 14 15 10 6 8 6 10 7 15 16 14 15 11 7 8 9 12 10 9 6 7 2 5 5 3 3 2 3 8 6 3 7 11 12 4 8 15 17 5 6 7 5 5 7 9 13 17 19 20 15 12 14 16 21 14 11 18 19 2 7 5 6 5 8 11 14 15 13 10 12 13 12 12
1 2 1 1 2 2 1 5 9 10 7 9 11 9 11 15 15 13 9 8 11 9 12 19 21 12 10 12 12 12 11 9 8 4 3 5 7 3 3 2 6 5 5 3 1 1 6 3 3 3 7 12 12 6 6 5 6 7 9 14 17 17 16 10 11 17 13 17 14 7 17 22 9 8 5 6 4 10 13 14 14 14 14 11 13 13 12 12
2 1 2 2 0 3 4 3 6 9 9 10 12 12 10 16 9 11 5 5 12 13 14 18 13 9 8 11 15 19 21 14 9 4 2 3 4 2 3 3 6 8 5 7 0 2 4 3 5 5 9 13 6 11 9 7 2 7 16 24 28 14 9 9 14 14 18 16 10 16 19 20 6 3 6 6 9 13 15 14 17 16 16 16 13 12 12 14
Wind_Direction
182 189 175 175 179 182 174 146 119 74 67 57 54 61 58 50 36 37 17 8 3 1 346 347 342 338 336 334 333 342 328 214 166 200 96 43 326 305 303 301 300 307 350 234 136 176 154 98 131 344 151 33 358 172 323 61 5 255 191 196 201 75 195 160 188 184 11 182 155 170 186 186 172 167 138 189 173 46 127 223 152 197 234 217 90 93 123 140
168 170 165 174 181 176 163 145 126 75 47 51 45 46 44 34 31 19 14 3 359 354 347 340 343 337 331 332 339 344 329 192 98 78 41 18 316 309 303 297 303 310 271 249 138 190 173 130 85 132 151 107 279 55 249 72 305 153 104 234 243 169 81 192 135 137 174 148 156 150 154 256 150 167 154 218 180 192 221 214 203 231 197 151 173 158 161 156
150 154 186 189 167 182 160 240 138 104 64 62 62 39 31 17 19 4 6 2 356 348 346 341 338 335 330 332 334 353 285 89 145 87 107 356 315 309 307 306 305 324 290 296 181 98 258 117 131 149 32 126 2 101 324 45 313 47 245 201 228 51 67 146 141 135 315 316 144 153 152 257 86 180 122 234 161 177 226 215 194 229 225 191 155 160 160 170
148 169 196 200 176 185 181 207 110 56 3 55 39 31 8 7 359 2 358 1 352 345 341 340 333 332 331 334 334 324 245 144 137 129 44 327 317 311 313 318 306 252 310 56 96 101 97 101 96 70 119 73 93 284 133 26 268 109 235 232 68 103 151 119 252 100 1 312 148 136 117 197 136 134 200 176 221 223 234 234 246 232 227 171 162 163 166 176
165 183 196 184 193 206 201 159 108 290 19 18 25 9 358 352 357 352 357 352 348 340 339 334 332 327 333 334 334 247 164 212 140 303 26 325 322 319 321 335 335 213 187 131 119 81 94 88 133 44 24 116 61 111 48 47 6 117 27 10 71 166 101 84 140 40 359 330 134 128 165 179 98 163 214 200 229 245 218 228 223 252 54 157 163 167 170 182
188 190 176 206 203 216 202 201 240 276 317 355 4 0 353 340 350 351 352 349 341 337 334 333 329 330 329 337 287 202 235 198 58 70 336 326 321 328 320 15 44 63 134 78 79 86 173 91 195 118 97 101 7 143 74 357 335 142 56 153 332 342 80 76 156 165 208 149 159 171 150 97 188 197 169 236 235 48 76 78 13 340 56 59 157 157 177 185
179 205 207 203 208 208 207 226 221 275 284 311 312 353 327 341 335 350 346 345 337 332 332 331 330 331 331 301 203 215 98 38 235 57 354 329 321 317 352 80 158 185 230 150 77 168 52 111 88 100 104 84 45 77 36 318 228 303 128 154 96 307 59 20 91 126 253 194 147 58 92 209 142 234 108 234 238 242 116 43 6 313 216 157 163 180 184 188
173 186 193 205 218 206 209 214 211 239 286 286 305 312 326 321 338 338 341 335 333 326 328 331 334 334 344 185 212 104 139 79 42 78 340 329 322 329 190 12 77 119 66 42 59 125 159 72 142 186 52 124 134 131 77 148 44 121 121 196 115 349 41 59 109 147 189 59 59 160 185 167 233 317 337 250 242 228 151 104 207 162 174 184 194 186 188 187
163 183 188 215 219 220 213 207 215 231 245 265 286 289 316 328 321 334 325 328 322 326 324 331 337 336 296 261 161 155 132 64 3 332 328 332 328 348 177 223 0 109 110 74 348 100 215 140 117 242 159 128 204 121 350 200 119 1 92 129 127 94 85 94 127 114 36 98 178 185 206 82 72 319 257 256 243 79 98 169 143 169 180 191 202 195 191 191
167 199 214 207 219 218 210 211 230 250 238 256 260 287 293 311 315 319 317 317 316 319 323 331 341 335 294 160 76 205 104 302 310 318 324 284 297 233 63 48 279 111 120 9 58 36 234 166 176 149 108 71 151 67 305 304 76 96 117 103 99 71 114 45 188 98 44 58 202 253 231 143 135 239 258 86 35 107 160 181 159 204 204 195 197 197 200 197
180 205 213 210 221 218 211 219 218 234 239 245 268 277 291 296 306 304 310 306 310 310 319 332 344 321 227 229 191 168 134 229 10 325 313 278 348 40 15 342 325 83 99 78 64 10 47 108 115 127 327 106 140 59 29 75 126 65 124 139 97 107 85 113 108 76 243 146 298 285 274 83 165 165 248 100 95 277 214 193 196 213 213 200 204 203 202 209
176 201 204 217 215 216 220 212 215 219 232 243 264 278 280 290 296 303 301 303 301 307 313 332 344 343 255 107 182 63 284 348 347 360 8 301 60 13 323 312 291 186 150 96 62 35 340 121 156 6 123 213 109 144 81 169 36 112 252 160 40 133 170 64 137 47 297 132 336 12 268 244 179 238 214 92 110 124 244 234 221 221 219 211 207 209 207 210
176 192 208 211 210 217 220 220 214 216 223 242 249 258 285 301 299 299 297 298 305 307 320 333 336 262 236 157 70 269 320 329 285 352 64 56 117 117 83 26 57 46 4 106 91 48 90 105 243 93 31 97 113 348 116 153 59 220 67 23 150 176 214 80 159 92 229 99 15 241 260 241 208 230 119 155 140 145 234 240 226 222 216 217 213 218 217 207
177 188 207 208 208 212 215 222 219 218 230 239 251 272 300 303 300 295 294 291 306 309 326 337 360 273 251 85 87 6 303 17 259 242 13 296 261 52 73 54 52 52 25 82 74 70 73 213 85 99 57 45 112 216 146 81 314 176 54 263 355 213 173 88 20 26 218 89 216 246 257 258 164 166 80 73 213 217 246 237 223 217 220 220 220 220 223 217
180 196 205 200 205 206 210 218 218 216 226 233 254 283 301 307 304 298 297 300 303 325 333 320 262 197 184 82 284 59 88 231 267 17 352 282 126 103 61 65 53 47 60 76 104 62 79 291 114 71 73 297 114 169 89 97 49 34 207 175 153 253 120 119 64 284 249 105 279 215 259 258 276 276 80 52 172 212 247 250 236 221 223 225 224 225 225 223
180 196 200 200 197 210 211 214 220 220 217 236 262 296 298 302 305 302 302 298 318 347 233 242 121 307 138 190 104 117 212 188 152 343 351 303 318 113 114 96 125 69 97 59 64 170 44 62 60 30 117 198 185 144 126 145 138 52 286 128 203 248 338 260 105 26 10 66 186 233 272 31 258 129 64 87 167 194 248 259 250 238 235 235 231 228 228 219
179 184 190 191 198 212 210 214 220 220 235 254 284 286 293 292 302 306 303 326 340 208 265 129 110 297 217 57 183 215 163 104 350 240 356 24 276 135 136 78 58 81 70 132 70 185 18 68 287 190 17 73 352 172 158 217 201 200 14 247 68 242 145 223 108 117 16 262 205 215 247 248 264 223 208 175 178 193 245 260 256 236 235 231 232 229 226 225
184 185 188 189 207 204 208 216 219 229 236 259 272 289 294 308 336 299 227 202 211 197 194 202 221 203 194 322 200 167 41 155 98 82 360 2 40 70 61 110 23 81 84 99 21 46 338 90 271 107 130 135 182 188 216 213 210 190 180 205 194 217 242 307 271 82 252 171 254 217 242 261 259 263 263 247 172 224 254 255 262 258 240 237 229 227 226 225
187 190 191 197 202 204 205 207 218 223 239 282 291 297 291 284 234 249 83 134 171 133 181 183 176 190 172 163 77 94 240 58 215 257 117 81 39 103 78 63 80 142 107 215 50 298 16 106 177 146 189 179 192 203 229 98 103 164 187 174 91 232 183 211 183 71 318 244 243 234 249 263 264 258 256 259 177 231 256 262 259 254 251 249 237 226 221 222
189 189 191 192 193 202 196 198 207 223 150 360 200 169 137 130 137 136 146 237 282 24 352 105 83 70 75 44 132 41 268 209 156 21 61 350 214 113 50 3 81 57 145 196 117 62 318 176 193 200 219 185 178 159 76 97 83 86 85 153 238 260 270 112 179 39 263 280 251 250 253 264 270 269 267 266 213 233 249 254 251 244 240 240 238 233 225 223
189 190 193 193 195 194 194 194 196 205 104 213 200 200 170 168 137 177 166 252 78 339 10 42 15 32 67 108 127 168 126 59 15 87 86 2 296 177 96 197 146 171 40 343 76 69 251 222 222 229 44 145 132 121 113 93 35 144 140 201 207 195 276 84 88 86 130 256 282 173 262 266 267 271 266 261 248 255 250 248 247 248 241 242 239 238 228 229
193 190 188 194 191 190 192 183 189 130 124 208 223 217 358 245 1 350 137 192 204 62 304 74 242 87 313 355 7 334 345 104 120 135 89 235 104 204 142 193 173 194 107 141 135 147 202 212 199 83 104 90 96 109 116 137 131 112 217 152 279 240 278 250 16 117 143 193 268 289 278 270 266 263 265 256 245 244 241 241 256 260 253 244 237 235 234 203
193 189 184 185 186 189 179 190 158 120 183 176 196 68 229 65 343 255 280 84 124 244 159 187 143 124 92 346 229 249 178 141 167 199 191 223 123 299 140 168 164 108 140 205 194 161 217 232 103 130 131 110 85 107 129 105 113 161 144 179 234 42 316 262 126 78 143 242 315 320 294 277 270 253 251 257 256 256 248 243 250 249 254 255 250 241 225 230
189 186 183 179 180 182 179 153 133 163 251 251 310 220 64 88 111 227 77 165 152 159 217 183 309 137 168 157 181 170 212 150 136 184 89 195 160 152 161 125 115 153 183 188 207 200 198 58 66 144 160 148 140 160 166 173 195 231 221 215 240 163 210 255 358 300 161 94 255 281 269 261 236 265 264 252 258 262 262 253 254 252 246 252 278 286 252 245
185 181 177 177 174 173 157 128 186 220 128 123 264 244 177 159 148 252 172 122 220 140 219 285 166 241 151 73 105 203 141 98 323 19 129 207 131 150 117 74 171 193 179 139 68 267 234 105 138 130 116 92 124 162 199 184 224 187 233 223 236 136 217 221 330 331 283 234 75 348 320 271 163 248 255 256 254 254 240 245 250 247 247 239 247 251 246 223
181 179 174 174 172 163 143 166 210 154 166 203 219 145 160 156 280 259 133 66 233 141 39 198 145 179 125 126 100 158 105 215 20 349 72 344 345 95 128 143 330 199 149 157 193 254 230 109 197 161 158 148 179 192 190 213 220 215 218 208 223 139 65 136 171 285 271 279 90 319 349 291 185 223 220 227 231 266 268 245 257 252 214 214 236 244 234 226
177 176 176 170 173 153 153 225 121 144 144 238 131 140 156 158 186 222 198 70 281 166 159 18 272 160 2 121 161 119 197 174 124 104 110 2 184 357 202 144 127 31 121 142 39 214 130 148 116 124 136 161 166 212 196 191 191 215 60 145 152 177 194 200 202 220 278 337 279 146 212 289 300 212 197 350 314 281 279 269 264 259 162 221 238 233 230 221
181 175 171 178 171 171 340 112 147 178 219 27 317 145 151 156 165 266 251 175 246 110 152 213 271 343 148 117 3 216 11 83 146 188 5 312 270 116 311 175 189 179 168 167 217 58 176 154 180 157 173 167 201 178 94 185 199 35 62 202 138 148 143 144 175 176 352 354 286 128 139 267 264 172 41 157 153 237 243 255 264 269 125 253 252 245 234 228
177 174 171 175 171 166 127 168 185 211 39 292 78 140 119 139 244 151 155 214 82 87 355 122 280 101 65 221 84 54 125 16 345 65 302 31 30 275 203 183 35 85 45 290 249 118 355 204 202 174 165 202 94 16 250 194 183 187 131 95 92 90 76 89 124 95 235 295 265 142 172 262 281 248 142 65 234 243 246 247 256 329 307 287 276 228 209 213
176 173 173 168 155 144 189 126 228 104 44 99 139 129 109 217 161 176 110 239 124 184 46 98 187 170 162 152 155 33 150 40 50 127 50 157 61 55 31 334 121 120 162 62 37 40 358 273 334 201 218 74 114 54 36 26 47 130 181 105 89 75 90 89 58 323 301 247 255 152 181 231 284 259 154 154 196 217 226 261 289 312 272 287 319 254 212 201
179 173 173 162 171 165 137 225 233 160 93 122 171 159 162 35 186 140 198 196 41 79 99 160 156 127 159 160 171 9 69 36 138 163 130 162 111 59 157 101 87 104 104 341 205 38 133 79 180 35 52 119 107 87 46 66 124 158 154 137 131 135 142 157 111 107 231 260 92 340 182 229 221 272 180 173 356 267 244 261 270 286 289 6 38 127 212 216
179 172 167 173 165 146 183 217 192 142 137 171 192 151 175 135 311 196 205 84 235 171 177 158 28 173 173 86 80 166 151 84 152 184 164 175 166 175 195 190 156 182 237 201 207 84 245 206 98 80 268 154 149 104 72 82 259 225 149 154 193 210 52 226 172 217 190 242 103 8 198 289 238 248 347 290 272 256 218 237 259 265 271 202 192 201 195 207
174 170 169 174 140 183 215 106 140 135 121 180 170 178 179 142 204 202 229 153 236 107 181 54 151 170 155 135 153 121 360 172 156 198 72 9 191 210 293 268 177 185 234 155 169 148 231 85 162 146 128 243 199 163 143 175 202 197 183 172 182 220 215 255 191 343 320 286 40 36 130 249 293 302 246 251 250 246 219 229 241 256 258 250 224 208 206 196
173 166 165 179 183 187 158 119 123 128 129 185 167 107 58 187 219 197 202 184 62 354 65 101 113 82 160 177 169 162 156 328 169 173 201 159 197 204 215 226 195 199 92 134 192 186 226 228 207 152 220 151 211 226 181 158 165 201 37 184 212 185 184 218 175 231 244 7 80 274 163 243 215 182 30 268 309 347 310 280 236 254 261 257 268 250 232 213
181 167 169 168 199 173 128 131 143 140 143 167 159 175 175 209 223 195 203 133 136 57 62 75 123 139 172 24 358 252 354 155 240 130 187 158 199 210 185 206 208 191 115 186 233 129 230 283 50 346 348 145 190 319 70 96 96 135 291 29 294 230 63 259 17 334 28 336 213 179 229 249 230 14 291 257 279 283 257 263 267 264 248 227 252 243 220 197
168 178 160 171 190 176 145 138 148 139 165 180 160 185 202 196 211 191 202 102 123 131 131 95 78 135 110 134 1 203 286 43 178 163 212 226 359 206 206 220 187 189 164 202 132 192 66 233 54 311 104 177 176 32 151 250 208 170 138 214 195 353 103 96 127 76 115 227 254 165 263 252 278 275 240 236 215 240 230 257 247 247 250 221 245 246 221 183
146 138 197 175 197 157 154 142 146 136 158 204 174 201 209 216 176 103 152 157 150 127 149 137 210 164 167 205 175 196 190 103 167 184 200 142 267 216 211 228 176 186 212 169 206 263 197 138 18 115 193 4 34 301 61 31 341 109 216 196 102 329 2 179 244 137 201 245 271 105 253 279 349 285 70 41 213 224 233 246 237 245 248 241 244 243 199 180
153 171 180 197 185 143 141 148 129 133 127 171 201 211 189 226 275 116 139 91 124 153 163 182 160 179 183 167 201 177 190 201 163 200 191 165 238 160 172 202 185 200 202 323 220 177 179 238 130 344 354 39 142 211 120 62 4 306 13 130 182 198 204 179 213 234 207 233 273 245 264 267 226 251 124 95 171 198 229 233 234 247 242 235 247 243 132 170
135 147 210 196 136 150 150 149 133 130 161 167 206 217 179 224 82 153 183 145 163 159 184 202 163 229 159 196 109 108 158 185 155 191 155 196 226 177 187 171 212 199 184 144 192 123 186 228 182 310 153 49 225 180 206 162 29 51 106 172 8 308 256 162 205 344 239 267 99 266 176 270 222 208 177 224 206 226 220 209 225 232 239 237 240 234 163 193
164 143 246 146 155 148 148 142 125 138 176 194 201 228 54 113 121 58 343 150 171 178 203 185 185 135 187 177 154 153 209 254 161 187 210 164 212 122 192 184 167 157 177 184 181 109 185 77 249 96 299 171 186 197 214 162 175 174 198 195 159 208 341 339 21 205 226 231 229 285 285 254 232 145 173 196 195 211 202 216 229 227 227 236 237 199 181 194
242 125 213 143 148 139 139 154 152 169 187 228 237 206 41 185 184 91 72 353 101 5 176 176 161 184 155 125 234 207 169 169 187 189 201 208 195 230 194 178 143 138 128 156 210 179 179 166 218 125 179 216 211 27 337 237 198 186 188 194 186 149 174 175 223 90 234 212 228 181 249 272 183 36 162 187 188 199 207 205 224 246 238 244 15 335 228 187
154 202 183 153 147 144 149 183 100 155 209 204 200 215 203 66 36 38 92 340 20 135 358 103 319 174 148 187 158 173 156 182 194 197 222 215 203 236 29 173 157 144 148 178 198 181 179 109 115 189 211 203 60 14 226 302 360 42 275 234 169 187 180 191 223 191 87 238 10 265 355 267 120 167 196 149 224 181 301 241 212 246 277 290 167 174 295 290
192 170 5 155 162 151 159 195 132 152 193 247 6 6 42 18 162 299 187 208 178 192 130 196 176 158 250 148 155 164 171 195 175 204 199 224 238 205 128 169 137 160 137 79 52 303 96 173 197 235 67 45 125 187 154 216 256 266 237 18 178 196 195 203 227 147 187 139 221 217 209 268 104 293 295 344 328 326 254 268 257 245 232 291 279 152 172 235
170 149 117 174 177 161 178 192 157 179 201 335 223 251 36 296 271 191 210 209 186 143 170 158 45 276 150 130 155 177 177 211 206 206 225 184 241 74 157 159 159 170 171 188 172 163 173 205 211 197 232 188 195 196 194 115 203 233 202 192 207 204 196 36 77 115 239 209 212 168 235 262 118 53 357 279 298 264 239 228 242 278 264 226 243 202 160 192
127 54 51 168 187 180 191 176 159 172 197 176 161 215 230 244 229 242 18 165 123 111 138 197 186 149 160 172 184 172 189 205 208 203 223 180 226 81 330 170 184 188 230 152 11 164 191 155 173 203 209 218 209 208 204 177 193 205 227 203 196 191 186 146 219 207 226 239 194 217 244 251 104 203 175 235 278 274 242 243 235 234 268 260 226 249 213 193
161 174 155 269 215 201 211 139 157 157 174 160 196 225 202 219 248 218 172 273 128 32 111 71 52 160 116 149 168 188 210 234 227 144 193 213 185 246 192 194 193 197 197 143 157 168 174 188 195 196 212 225 234 251 50 118 124 188 207 178 194 207 198 198 212 212 222 219 181 221 229 258 262 179 168 189 245 245 260 255 253 254 248 239 249 249 242 237
345 213 151 181 93 256 159 159 174 170 190 171 200 163 188 212 198 52 190 235 198 190 79 123 196 166 201 175 192 206 203 208 218 117 206 202 56 154 25 211 233 239 127 144 162 133 79 211 214 221 226 241 250 239 177 154 178 202 189 192 197 189 199 197 206 225 202 68 247 239 225 245 260 244 184 177 220 252 258 262 271 262 250 244 227 209 217 240
177 251 234 278 207 187 199 217 177 184 183 166 206 164 194 197 201 206 167 227 65 195 171 329 242 234 192 199 182 205 174 218 184 220 148 334 123 163 100 113 215 191 170 196 182 179 183 217 213 216 231 239 242 214 167 194 193 190 200 191 192 199 198 203 219 228 192 206 234 248 191 223 252 258 187 215 194 233 226 233 240 247 284 266 223 207 224 230
325 1 228 304 204 265 205 173 178 177 173 172 189 172 191 192 201 203 176 173 192 224 189 229 221 214 214 180 171 196 169 179 239 237 208 150 178 144 172 54 243 154 196 175 176 229 178 237 217 208 225 235 239 212 161 183 189 167 217 214 203 195 201 207 219 218 213 226 250 263 252 234 246 259 119 225 195 233 246 239 243 241 235 234 236 228 229 229
192 193 239 15 327 7 252 154 173 180 184 176 180 198 188 192 206 192 186 164 178 215 188 221 227 218 218 222 205 208 203 211 211 218 185 167 221 193 196 183 121 64 206 205 173 262 196 223 211 184 222 237 241 200 158 186 168 217 216 221 218 213 211 208 216 228 224 248 248 260 295 276 263 119 260 192 215 207 242 244 243 243 244 235 235 227 226 228
24 52 73 83 191 227 115 155 160 175 188 185 201 193 196 199 210 176 198 186 189 177 182 212 223 210 210 222 228 238 237 223 226 209 169 171 204 223 162 248 133 146 168 174 153 268 190 251 51 151 218 240 237 158 174 158 202 233 237 228 224 210 215 197 222 221 206 223 241 281 259 254 259 124 258 254 193 222 227 229 239 249 251 235 235 233 230 230
77 261 89 337 275 245 177 191 189 166 205 190 198 196 187 208 194 151 218 218 216 202 191 207 212 185 214 207 221 227 229 223 231 133 167 107 111 120 97 149 146 151 167 189 69 171 184 190 204 184 222 237 252 125 141 134 79 259 245 235 230 210 180 205 226 222 214 213 218 229 237 245 233 82 246 214 208 232 236 240 245 247 251 255 249 239 229 229